Location: Byszew
(52.1813°N, 19.2693°E)
Time: 02:01:29
(UTC+00:00)

Envisat - Pass Details

Date: 30 January 2022
Orbit: 764 x 765 km, 98.2° (Epoch: 28 May)

Event Time Altitude Azimuth Distance (km) Brightness Sun altitude
Rises 03:28:02 0° 17° (NNE) 3,244 6.5 -27.3°
Reaches altitude 10° 03:30:23 10° 21° (NNE) 2,313 5.8 -27.0°
Maximum altitude 03:35:25 60° 101° (E) 880 3.5 -26.2°
Drops below altitude 10° 03:40:25 10° 181° (S) 2,297 5.4 -25.4°
Sets 03:42:45 0° 185° (S) 3,219 6.1 -25.1°
